Temp
75 82 84 76 61 61 57 60 67 66 66 67 73 68 64 68 64 54 74 81 82 78 78 76 75 76 76 76 76 76 76 76 76 76 76 76 76 76 76 75 75 76 76 76 75 74 74 73 73
80 88 77 70 58 54 56 65 64 67 70 72 69 67 66 64 73 70 72 80 83 80 78 76 73 75 75 75 76 76 76 76 76 76 76 76 76 76 76 75 75 75 75 75 74 74 73 72 73
78 86 69 64 60 56 57 63 66 69 70 69 67 67 67 66 73 72 77 81 82 80 80 75 73 74 75 75 75 75 75 75 75 75 75 75 75 75 75 75 74 75 74 74 74 73 72 72 72
79 74 72 59 59 64 65 68 70 67 67 69 69 65 69 73 75 77 79 82 80 81 78 71 73 74 75 74 74 74 75 75 75 75 75 74 74 74 74 74 74 73 73 73 73 72 71 71 72
76 72 60 58 60 65 69 72 72 68 68 68 67 64 65 71 77 78 78 81 78 76 75 74 72 73 74 74 74 74 74 74 74 74 74 74 73 73 73 73 73 72 72 72 72 71 70 71 71
67 69 57 55 61 68 67 70 69 69 71 67 64 63 65 74 73 75 78 78 80 75 76 73 69 71 72 73 73 73 73 73 73 73 73 73 73 73 73 72 72 72 71 71 71 70 70 70 71
63 60 57 60 61 65 69 72 66 68 68 67 69 62 65 69 74 76 76 78 79 77 76 74 72 71 68 70 71 71 72 72 72 72 72 71 71 71 71 71 71 71 70 70 70 69 69 70 69
66 64 59 59 60 59 68 70 69 67 66 70 69 62 59 69 75 75 75 76 77 76 76 75 73 72 71 69 67 68 69 70 70 69 67 66 67 67 67 67 69 70 69 69 68 68 68 68 68
69 56 55 59 62 62 69 66 66 69 66 65 69 67 69 74 75 72 70 72 73 74 75 75 74 73 72 71 67 66 66 67 66 66 64 65 66 66 66 65 67 68 68 67 67 67 67 67 66
61 55 60 67 67 65 68 66 67 62 63 63 66 66 69 72 70 69 68 69 70 69 73 75 75 75 74 73 67 68 68 68 68 66 67 69 69 66 64 61 63 65 65 66 67 67 67 64 60
63 58 65 67 66 68 67 63 69 62 60 67 67 67 67 68 68 68 69 70 70 72 74 76 76 75 74 72 69 69 68 68 67 67 65 64 64 64 62 60 59 58 59 59 61 60 60 59 58
57 67 66 65 65 64 61 67 62 65 66 69 69 71 67 67 67 68 68 70 70 71 72 74 76 75 72 70 69 69 67 67 66 65 63 61 63 64 62 62 59 58 58 57 56 55 57 56 57
58 64 65 65 62 61 64 61 62 63 69 71 70 69 67 66 68 69 71 71 71 70 72 72 73 75 73 71 70 68 67 66 67 66 64 63 63 62 62 61 59 58 59 57 58 55 55 53 54
63 64 64 65 65 64 60 60 60 63 69 69 70 66 66 68 68 68 69 70 71 72 71 72 73 77 75 71 70 68 67 67 67 68 65 64 63 62 58 58 58 56 60 58 57 56 55 54 53
62 56 61 63 64 60 61 56 58 65 67 67 68 66 68 68 70 69 69 69 71 71 72 71 72 72 70 70 69 68 67 68 67 67 64 62 63 61 60 56 57 56 55 56 54 56 54 53 53
56 55 49 60 62 59 56 49 64 65 65 64 65 65 67 68 69 69 70 70 71 70 70 70 71 69 68 68 66 67 64 66 65 66 65 62 61 62 58 57 55 53 54 54 52 51 50 51 50
54 46 51 54 62 58 55 51 59 61 59 61 62 65 67 67 67 69 70 69 70 69 69 68 67 66 66 66 63 62 61 61 61 63 64 64 59 59 58 55 53 55 54 53 54 52 52 49 48
48 48 53 50 56 53 52 51 60 63 62 61 62 64 65 67 69 69 69 69 68 68 68 67 66 65 63 61 58 55 54 54 55 56 59 60 59 57 55 53 53 53 51 52 52 50 50 50 49
57 51 50 54 57 53 52 54 58 63 62 61 61 62 64 66 70 70 69 67 66 66 66 67 65 64 60 56 54 52 51 50 51 52 53 55 56 54 52 51 51 51 51 52 52 49 47 46 47
54 50 49 56 57 51 51 51 58 61 61 63 66 63 64 65 67 68 64 63 64 64 64 64 65 64 59 58 56 55 52 50 50 49 50 51 51 51 51 50 49 50 49 49 49 48 42 45 46
49 48 47 49 53 52 47 45 50 58 61 65 66 68 67 66 65 63 61 60 60 60 61 62 63 62 60 57 53 49 49 47 46 46 46 47 49 48 48 49 49 48 47 47 47 46 46 41 44
45 53 54 51 44 37 47 35 49 57 58 59 61 61 62 64 65 62 61 59 58 58 59 61 61 60 59 59 51 51 50 48 48 46 46 46 47 47 47 48 48 48 48 47 46 47 46 42 43
49 52 49 48 43 41 41 37 45 56 54 58 62 63 61 59 62 60 60 59 59 59 57 58 59 58 57 56 54 51 51 54 50 47 45 44 44 44 45 45 46 46 47 46 46 45 45 45 43
53 49 48 44 43 33 44 42 43 51 56 59 61 60 58 57 56 55 55 57 55 55 55 55 56 56 54 54 53 50 49 49 44 41 43 42 41 41 42 43 44 45 45 44 44 45 44 44 44
49 44 32 30 29 31 47 42 49 55 59 58 58 56 56 56 54 51 50 50 51 51 51 52 53 53 52 51 50 50 50 47 44 42 41 38 37 39 39 41 41 43 44 44 44 43 41 42 42
43 45 33 25 27 32 36 34 45 57 58 58 62 58 56 54 54 52 51 50 50 51 50 50 51 51 50 49 48 48 49 46 45 43 42 41 42 41 41 40 40 40 40 41 41 41 40 40 40
44 40 50 38 29 28 37 45 54 56 58 58 57 57 54 54 53 52 50 50 49 49 49 49 50 51 50 48 47 46 46 44 43 43 44 43 43 41 40 39 38 38 37 38 39 39 39 39 39
48 51 38 37 25 23 35 36 43 50 53 57 55 55 54 54 51 49 48 48 49 49 49 49 50 49 49 49 48 48 46 45 46 45 43 43 40 38 37 37 36 36 36 37 37 36 36 35 35
43 40 45 45 39 28 28 36 49 50 51 52 54 55 54 50 49 48 47 48 48 47 47 47 48 48 48 48 47 45 43 43 42 42 41 39 37 36 35 35 35 35 35 36 36 36 36 35 35
47 47 48 37 32 35 32 40 50 50 51 51 51 52 51 50 50 48 47 46 46 45 46 46 46 46 47 47 46 44 43 42 39 38 37 36 35 35 34 34 34 34 35 35 35 35 35 34 33
MSLP
1012.26 1011.41 1011.10 1011.00 1011.46 1010.50 1010.48 1010.95 1010.83 1011.32 1011.54 1012.09 1012.15 1012.57 1013.05 1013.48 1014.32 1015.91 1015.86 1015.65 1016.10 1017.23 1018.21 1018.80 1019.26 1019.71 1020.02 1020.26 1020.54 1020.79 1021.00 1021.17 1021.22 1021.31 1021.35 1021.43 1021.46 1021.50 1021.53 1021.53 1021.59 1021.65 1021.86 1021.97 1022.09 1022.34 1022.51 1022.46 1022.30
1012.10 1011.30 1011.16 1011.00 1010.79 1010.26 1010.54 1010.84 1011.04 1011.41 1012.00 1012.26 1012.59 1012.77 1012.95 1014.21 1014.61 1015.55 1015.90 1015.95 1016.12 1017.10 1018.20 1018.89 1019.41 1019.82 1020.20 1020.51 1020.75 1021.07 1021.27 1021.38 1021.55 1021.64 1021.70 1021.77 1021.82 1021.88 1021.93 1022.05 1022.09 1022.14 1022.41 1022.54 1022.67 1022.86 1023.00 1023.03 1022.88
1012.51 1011.57 1011.66 1010.75 1010.10 1010.14 1010.38 1010.65 1011.21 1012.00 1012.20 1012.27 1012.64 1013.04 1013.34 1014.50 1014.89 1015.56 1015.59 1015.94 1016.19 1017.12 1017.98 1018.98 1019.54 1019.95 1020.35 1020.71 1021.02 1021.33 1021.50 1021.65 1021.83 1021.93 1022.06 1022.16 1022.25 1022.36 1022.47 1022.60 1022.71 1022.76 1023.00 1023.11 1023.23 1023.29 1023.53 1023.59 1023.33
1011.99 1011.66 1011.60 1011.03 1010.31 1010.26 1010.28 1010.57 1011.26 1012.16 1012.54 1012.61 1012.72 1013.32 1014.12 1014.65 1014.76 1015.16 1015.86 1015.82 1016.44 1016.98 1018.05 1019.10 1019.71 1020.11 1020.50 1020.85 1021.20 1021.51 1021.76 1021.91 1022.09 1022.23 1022.40 1022.56 1022.67 1022.81 1023.00 1023.16 1023.24 1023.40 1023.59 1023.64 1023.80 1023.83 1024.00 1024.01 1023.80
1011.98 1011.44 1011.47 1010.88 1010.18 1010.23 1010.45 1010.56 1011.15 1011.95 1012.38 1012.73 1012.93 1013.46 1014.41 1014.99 1015.17 1015.54 1016.03 1016.11 1016.54 1017.55 1018.28 1019.10 1019.79 1020.23 1020.64 1021.03 1021.35 1021.66 1021.93 1022.20 1022.43 1022.66 1022.84 1022.95 1023.08 1023.26 1023.49 1023.64 1023.76 1024.01 1024.17 1024.25 1024.37 1024.46 1024.58 1024.53 1024.45
1011.84 1011.50 1011.52 1011.00 1010.29 1010.13 1010.38 1010.75 1011.05 1011.52 1012.10 1012.75 1013.00 1013.34 1014.42 1014.91 1015.59 1015.87 1016.11 1016.28 1016.46 1017.63 1018.34 1019.26 1019.97 1020.38 1020.76 1021.17 1021.50 1021.82 1022.08 1022.34 1022.63 1022.93 1023.18 1023.32 1023.47 1023.66 1023.89 1024.07 1024.25 1024.43 1024.61 1024.78 1024.89 1025.00 1025.05 1025.10 1024.91
1011.93 1011.89 1011.61 1010.96 1010.39 1010.24 1010.44 1010.81 1011.14 1011.39 1012.06 1012.54 1012.71 1013.21 1014.60 1015.27 1015.54 1015.79 1016.12 1016.34 1016.60 1017.46 1018.28 1019.18 1020.02 1020.49 1020.88 1021.25 1021.58 1021.93 1022.22 1022.48 1022.74 1023.03 1023.34 1023.60 1023.85 1024.03 1024.25 1024.45 1024.62 1024.85 1025.08 1025.25 1025.44 1025.61 1025.65 1025.60 1025.64
1012.18 1011.93 1011.83 1011.09 1010.67 1010.57 1010.65 1011.08 1011.20 1011.42 1012.06 1012.29 1012.71 1013.32 1014.41 1014.86 1015.43 1015.92 1016.16 1016.39 1016.81 1017.38 1018.21 1018.92 1019.84 1020.47 1020.91 1021.35 1021.66 1021.97 1022.29 1022.59 1022.82 1023.13 1023.51 1023.86 1024.17 1024.42 1024.64 1024.85 1025.02 1025.22 1025.49 1025.73 1025.97 1026.12 1026.18 1026.27 1026.35
1012.35 1012.35 1011.89 1011.29 1010.92 1010.83 1010.96 1011.43 1011.74 1011.90 1012.22 1012.58 1013.08 1013.62 1014.18 1014.59 1015.41 1016.15 1016.49 1016.70 1017.03 1017.59 1018.24 1018.76 1019.40 1020.12 1020.60 1021.13 1021.68 1022.01 1022.37 1022.68 1022.99 1023.36 1023.65 1023.92 1024.30 1024.67 1024.97 1025.25 1025.42 1025.68 1025.91 1026.13 1026.38 1026.58 1026.72 1026.76 1026.96
1012.48 1012.44 1011.85 1011.41 1011.16 1011.29 1011.45 1011.67 1011.86 1012.32 1012.51 1012.98 1013.53 1014.38 1014.59 1014.96 1015.61 1016.13 1016.46 1016.72 1016.98 1017.62 1018.17 1018.55 1018.98 1019.48 1020.08 1020.70 1021.58 1021.99 1022.36 1022.69 1023.00 1023.37 1023.60 1023.79 1024.13 1024.70 1025.23 1025.63 1025.84 1026.12 1026.34 1026.51 1026.71 1026.87 1026.99 1027.10 1027.30
1012.18 1012.31 1012.14 1011.89 1012.01 1011.97 1012.01 1012.14 1012.00 1012.27 1012.67 1012.67 1013.18 1014.03 1014.80 1015.19 1015.66 1016.01 1016.35 1016.45 1016.68 1017.14 1017.60 1018.11 1018.39 1019.06 1019.63 1020.30 1021.10 1021.66 1022.26 1022.66 1023.02 1023.37 1023.73 1023.92 1024.33 1024.93 1025.49 1025.97 1026.37 1026.63 1026.81 1026.94 1027.16 1027.38 1027.51 1027.69 1027.94
1012.45 1012.21 1012.34 1012.50 1012.68 1012.80 1012.79 1012.55 1012.36 1012.56 1012.61 1012.40 1012.57 1013.07 1014.20 1014.96 1015.36 1015.57 1015.92 1016.11 1016.29 1016.66 1017.11 1017.51 1017.81 1018.39 1019.23 1020.00 1020.69 1021.25 1021.96 1022.46 1022.84 1023.21 1023.66 1024.07 1024.39 1024.89 1025.50 1025.83 1026.34 1026.60 1026.85 1027.25 1027.52 1027.82 1028.06 1028.35 1028.65
1012.66 1012.39 1012.62 1012.86 1013.19 1013.34 1013.31 1013.26 1013.03 1012.56 1012.33 1012.40 1012.68 1013.23 1013.99 1014.63 1014.88 1015.16 1015.24 1015.55 1015.87 1016.25 1016.58 1016.97 1017.37 1017.85 1018.62 1019.43 1020.14 1020.92 1021.57 1022.04 1022.45 1023.06 1023.46 1023.88 1024.21 1024.75 1025.23 1025.53 1026.01 1026.40 1026.69 1027.34 1027.89 1028.29 1028.70 1029.07 1029.43
1012.59 1012.54 1012.75 1012.95 1013.37 1013.47 1013.69 1013.44 1013.33 1012.23 1012.01 1012.35 1012.64 1013.14 1013.72 1014.11 1014.26 1014.63 1014.86 1015.03 1015.22 1015.61 1016.03 1016.40 1017.00 1017.15 1017.90 1018.79 1019.45 1020.14 1020.83 1021.41 1021.85 1022.38 1023.02 1023.65 1024.10 1024.57 1025.13 1025.53 1025.98 1026.43 1026.73 1027.31 1027.97 1028.41 1028.97 1029.55 1030.05
1012.97 1013.11 1012.98 1013.01 1013.30 1013.68 1013.86 1013.76 1013.11 1011.78 1012.26 1012.31 1012.46 1012.64 1013.06 1013.49 1013.60 1013.77 1013.88 1014.31 1014.51 1014.93 1015.37 1016.02 1016.53 1016.94 1017.55 1018.26 1018.86 1019.54 1020.19 1020.77 1021.32 1021.80 1022.51 1023.34 1023.83 1024.28 1024.90 1025.45 1025.94 1026.52 1026.84 1027.39 1028.14 1028.71 1029.27 1029.87 1030.52
1013.24 1013.33 1013.20 1012.32 1013.08 1013.94 1014.17 1013.25 1012.16 1011.78 1011.95 1012.30 1012.35 1012.57 1012.50 1012.72 1012.86 1013.14 1013.16 1013.53 1013.99 1014.51 1015.06 1015.63 1016.33 1017.03 1017.57 1017.80 1018.58 1019.22 1019.96 1020.44 1021.03 1021.48 1022.14 1022.93 1023.55 1023.97 1024.74 1025.44 1026.08 1026.33 1026.94 1027.57 1028.51 1029.15 1029.81 1030.29 1030.75
1013.25 1013.19 1012.94 1012.94 1013.04 1013.82 1014.39 1013.43 1012.52 1012.12 1012.16 1012.41 1012.34 1012.23 1011.96 1011.93 1012.16 1012.31 1012.61 1013.02 1013.41 1013.90 1014.54 1015.29 1016.01 1016.75 1017.56 1017.87 1018.63 1019.36 1019.90 1020.32 1020.94 1021.38 1021.84 1022.42 1023.16 1023.80 1024.45 1025.18 1025.93 1026.33 1026.88 1027.47 1028.26 1029.18 1029.77 1030.44 1031.17
1013.08 1013.07 1012.78 1012.86 1013.43 1013.85 1014.28 1013.58 1013.07 1012.53 1012.33 1012.23 1012.07 1011.80 1011.67 1011.46 1011.32 1011.50 1011.95 1012.47 1012.99 1013.44 1014.09 1014.88 1015.75 1016.55 1017.49 1018.16 1019.08 1020.06 1020.61 1020.98 1021.10 1021.56 1021.77 1022.28 1022.86 1023.54 1024.31 1025.21 1025.67 1026.36 1026.95 1027.35 1028.28 1028.80 1029.76 1030.46 1031.17
1012.78 1012.98 1013.18 1012.70 1013.32 1013.85 1013.99 1013.54 1012.93 1012.33 1012.03 1011.71 1011.54 1011.17 1010.92 1010.81 1010.55 1010.60 1010.98 1011.71 1012.74 1013.43 1013.91 1014.33 1015.29 1016.17 1017.17 1018.44 1019.52 1020.54 1020.96 1021.37 1021.58 1021.86 1022.08 1022.28 1022.68 1023.35 1024.19 1025.01 1025.77 1026.30 1026.82 1026.86 1027.73 1028.68 1029.60 1030.97 1031.31
1013.21 1013.32 1013.51 1013.36 1013.69 1014.18 1014.15 1013.58 1012.66 1011.98 1011.25 1010.88 1010.57 1010.62 1010.25 1010.30 1010.10 1010.19 1010.65 1011.40 1012.15 1013.10 1013.85 1014.49 1015.17 1016.06 1017.07 1018.16 1019.08 1019.77 1020.53 1021.35 1021.60 1022.05 1022.46 1022.65 1023.02 1023.43 1023.96 1024.64 1025.45 1026.02 1026.54 1027.45 1027.96 1028.30 1029.45 1030.93 1030.92
1013.68 1013.76 1014.03 1014.23 1014.20 1014.25 1014.22 1013.26 1012.37 1010.33 1010.13 1009.97 1009.81 1009.66 1009.72 1009.80 1010.04 1010.20 1010.73 1011.39 1012.04 1012.76 1013.50 1014.33 1015.02 1015.99 1017.12 1018.04 1018.97 1019.82 1020.55 1021.31 1021.87 1022.19 1022.54 1022.76 1023.07 1023.57 1023.88 1024.41 1025.22 1025.90 1026.09 1026.80 1027.98 1028.05 1028.54 1029.42 1030.44
1014.29 1014.01 1014.30 1014.81 1015.41 1015.11 1014.51 1013.09 1011.72 1010.57 1009.80 1009.53 1009.16 1009.04 1009.15 1009.36 1009.52 1010.26 1011.02 1011.67 1012.35 1012.89 1013.50 1013.98 1014.85 1015.52 1016.46 1017.58 1018.52 1019.06 1019.57 1020.26 1020.72 1021.33 1022.12 1022.63 1023.01 1023.47 1023.92 1024.23 1024.86 1025.58 1025.92 1026.36 1027.08 1027.85 1028.46 1028.44 1029.32
1014.44 1014.56 1014.73 1015.21 1015.78 1015.73 1014.62 1014.14 1010.60 1009.74 1009.46 1008.87 1008.31 1008.51 1008.75 1009.08 1009.67 1010.58 1011.30 1011.84 1012.27 1012.82 1013.46 1014.00 1014.55 1015.41 1016.02 1016.93 1017.85 1018.60 1019.22 1019.43 1020.22 1021.11 1021.90 1022.57 1022.94 1023.38 1023.81 1024.19 1024.58 1025.16 1025.63 1025.92 1026.58 1027.69 1027.81 1028.42 1028.73
1014.69 1015.32 1015.86 1016.21 1016.50 1015.84 1014.39 1013.68 1009.79 1009.09 1008.21 1007.75 1007.50 1008.21 1008.93 1009.61 1010.38 1011.31 1011.81 1012.31 1012.74 1013.12 1013.62 1014.23 1014.77 1015.37 1015.97 1016.64 1017.41 1018.15 1018.90 1019.38 1020.19 1020.99 1021.61 1022.23 1022.79 1023.24 1023.82 1024.07 1024.48 1024.88 1025.26 1025.71 1026.52 1027.01 1027.69 1028.21 1028.73
1015.04 1015.86 1016.63 1017.20 1017.08 1014.90 1013.43 1012.82 1009.28 1008.31 1007.39 1007.39 1007.92 1008.79 1009.40 1010.17 1011.08 1011.94 1012.59 1013.11 1013.48 1014.00 1014.21 1014.53 1014.99 1015.60 1016.18 1016.81 1017.46 1017.96 1018.44 1018.97 1019.70 1020.49 1021.23 1022.03 1022.57 1023.04 1023.49 1023.95 1024.36 1024.71 1025.05 1025.52 1026.03 1026.72 1027.35 1027.72 1028.23
1014.82 1014.98 1015.40 1015.81 1016.54 1015.17 1013.95 1011.70 1008.99 1007.62 1007.20 1007.18 1007.42 1008.30 1009.52 1010.57 1011.31 1012.27 1012.85 1013.44 1013.85 1014.29 1014.66 1015.06 1015.31 1015.50 1016.26 1016.94 1017.61 1018.07 1018.38 1018.82 1019.32 1020.10 1020.81 1021.40 1021.73 1021.95 1022.69 1023.51 1023.89 1024.42 1024.82 1025.38 1025.87 1026.54 1027.02 1027.48 1028.02
1014.48 1014.64 1014.11 1015.30 1015.83 1015.80 1013.34 1010.85 1008.66 1007.83 1007.73 1007.74 1008.15 1009.02 1009.78 1010.63 1011.41 1012.36 1012.91 1013.40 1014.02 1014.46 1014.87 1015.26 1015.65 1015.78 1016.20 1016.98 1017.65 1018.13 1018.59 1019.12 1019.50 1019.96 1020.44 1021.01 1021.49 1021.88 1022.58 1023.26 1023.85 1024.44 1024.95 1025.43 1025.93 1026.46 1027.05 1027.49 1027.92
1012.88 1013.35 1014.30 1014.98 1015.88 1015.44 1012.72 1011.26 1009.20 1008.37 1008.17 1007.83 1008.36 1008.84 1009.83 1010.66 1011.45 1012.29 1012.97 1013.38 1013.87 1014.35 1014.98 1015.42 1015.49 1015.73 1016.01 1016.63 1017.32 1017.87 1018.36 1018.93 1019.45 1019.99 1020.45 1020.90 1021.46 1022.00 1022.62 1023.21 1023.82 1024.34 1024.81 1025.13 1025.61 1026.18 1026.87 1027.49 1028.10
1013.03 1013.11 1013.24 1013.85 1014.26 1014.18 1013.10 1010.85 1008.74 1009.14 1008.89 1008.78 1008.87 1009.26 1009.74 1010.71 1011.61 1012.61 1013.32 1013.50 1014.21 1014.56 1015.02 1015.32 1015.46 1015.42 1015.80 1016.22 1016.88 1017.51 1018.06 1018.59 1019.15 1019.67 1020.12 1020.60 1021.25 1021.90 1022.46 1023.00 1023.46 1024.00 1024.53 1025.09 1025.63 1026.05 1026.63 1027.35 1027.87
1012.75 1012.35 1012.82 1012.99 1013.59 1013.84 1013.28 1009.56 1009.48 1009.47 1009.64 1009.68 1010.06 1010.34 1010.83 1011.35 1011.98 1012.84 1013.33 1013.82 1014.35 1014.83 1015.05 1015.36 1015.54 1015.54 1015.87 1015.98 1016.39 1017.24 1017.96 1018.52 1019.05 1019.51 1019.94 1020.55 1021.23 1021.89 1022.47 1023.05 1023.50 1023.94 1024.24 1024.62 1025.18 1025.75 1026.46 1027.07 1027.87
Wind_Speed
8 8 4 2 2 3 5 4 5 6 5 3 6 5 3 9 5 4 5 5 15 16 13 12 13 14 14 14 14 13 13 13 13 13 14 14 14 15 16 15 15 19 20 20 20 19 19 19 18
8 6 2 4 3 2 3 7 4 8 7 7 4 1 2 5 8 6 7 5 11 16 13 12 13 15 14 13 15 13 13 14 14 14 14 14 14 15 16 16 17 19 19 19 19 19 19 18 16
7 5 2 3 3 5 5 3 10 8 5 4 4 2 4 5 8 8 11 9 9 15 12 13 13 15 14 15 14 14 13 14 14 14 15 15 15 15 16 16 17 19 18 18 18 19 18 16 15
4 2 4 2 4 6 6 8 12 8 3 3 4 7 5 4 6 9 9 10 9 12 15 15 14 15 14 15 15 14 13 14 14 15 15 15 15 15 16 16 16 18 17 17 17 18 17 16 15
3 3 3 4 4 5 5 7 9 7 8 8 3 5 5 3 9 9 8 8 9 15 14 13 13 14 14 15 15 15 14 14 15 15 15 15 15 15 16 16 17 17 17 17 17 17 17 16 15
2 1 4 5 6 7 4 4 4 6 6 6 3 2 5 11 8 8 8 8 9 15 14 12 11 12 13 14 15 15 14 14 15 15 15 15 15 16 16 16 17 17 17 17 17 18 17 16 16
1 2 7 8 3 6 4 6 4 5 8 6 3 1 5 8 8 8 8 8 11 14 13 12 9 10 12 12 13 14 14 14 14 14 14 13 13 14 15 15 17 17 17 18 18 18 17 17 18
3 1 7 5 4 2 6 6 3 2 3 2 1 1 5 8 9 8 6 7 10 13 12 12 10 9 9 8 12 12 13 13 13 14 14 13 13 14 14 12 15 17 18 18 18 18 17 18 24
3 2 4 5 6 2 8 6 0 3 4 1 5 4 3 12 10 8 6 6 7 10 11 9 12 10 10 9 8 11 12 12 12 11 13 12 7 9 10 11 15 18 18 18 18 17 17 14 20
2 3 6 7 7 5 7 4 8 2 4 4 4 7 2 10 8 9 8 8 7 9 10 11 10 11 11 10 10 8 8 7 7 8 10 5 8 8 9 10 14 16 15 17 17 14 10 7 5
4 3 6 7 7 8 5 2 4 4 5 8 11 12 9 7 9 9 9 8 9 11 9 12 14 10 11 9 8 5 5 5 5 7 4 5 8 8 6 6 5 6 7 4 5 4 5 7 5
2 7 3 3 4 3 2 5 2 6 8 4 7 8 11 11 10 10 10 9 9 10 11 12 11 12 11 7 8 7 6 6 5 6 7 5 5 8 7 5 6 5 4 5 5 4 7 8 9
3 4 2 5 2 3 2 4 5 8 9 5 6 4 11 10 10 9 9 9 9 9 11 9 9 10 11 10 8 7 7 7 8 7 7 5 6 6 5 5 4 4 5 6 6 6 7 7 8
4 5 3 5 6 5 3 4 2 6 11 10 9 9 7 11 12 9 10 10 10 10 10 11 9 10 12 10 11 8 7 7 7 9 8 8 6 6 5 5 5 4 5 6 6 8 8 8 8
1 3 7 8 6 2 4 6 11 13 7 7 7 8 9 10 10 12 11 10 10 8 9 11 11 7 7 10 8 7 7 8 7 7 11 10 8 8 6 6 6 4 5 9 7 9 9 9 9
4 3 3 2 9 4 3 6 7 5 7 10 10 9 10 12 12 10 9 10 9 9 10 9 8 8 7 8 5 7 7 6 4 5 8 11 8 10 7 7 6 6 6 7 7 8 8 8 9
5 5 7 4 7 6 7 6 3 3 2 7 8 9 8 9 11 11 10 9 10 9 10 10 10 9 7 7 7 6 5 5 4 4 6 10 9 10 8 6 7 8 7 8 9 7 8 8 8
7 6 6 5 6 2 6 12 11 7 8 10 10 10 9 9 11 11 12 10 9 9 9 9 9 9 8 6 7 4 3 3 4 3 4 9 8 10 9 7 9 7 8 8 8 11 7 9 9
8 4 8 2 6 5 8 11 11 10 9 10 11 10 11 10 9 11 13 11 8 9 10 12 13 11 9 5 4 3 3 2 2 3 4 6 8 10 9 7 7 7 8 10 11 11 13 7 11
8 5 7 8 6 3 6 13 15 13 12 12 16 11 11 8 9 9 10 10 11 9 8 8 11 12 10 8 4 3 4 2 3 3 3 4 5 8 9 10 9 9 8 8 11 13 7 5 8
5 6 5 7 4 6 5 9 13 12 11 15 14 15 11 11 8 4 9 10 9 9 9 8 8 10 11 10 7 4 5 4 3 2 3 4 5 5 9 9 9 8 10 11 10 12 11 9 8
6 4 9 6 2 4 4 8 5 11 9 9 11 10 10 10 8 8 9 8 8 8 6 8 8 9 9 13 8 7 5 4 4 4 4 5 7 7 7 9 9 10 7 11 11 10 7 7 12
4 3 2 3 3 6 4 6 8 12 8 10 12 10 8 4 8 6 8 7 5 8 8 8 8 8 8 8 11 8 5 4 5 6 8 6 5 6 7 8 9 9 8 10 12 11 11 8 9
9 6 4 2 2 7 7 8 5 8 8 7 8 4 8 8 8 8 7 6 4 5 6 6 7 6 8 7 7 8 8 6 7 5 7 6 5 5 6 7 8 8 8 10 10 10 9 8 7
5 6 2 2 3 11 8 8 9 3 6 2 3 6 7 8 7 6 6 3 3 5 5 6 7 6 7 7 5 6 7 8 9 9 7 8 5 4 7 8 8 8 9 10 10 11 9 8 7
11 9 7 8 6 6 2 9 6 4 2 2 7 10 8 8 7 6 7 6 6 7 6 5 6 7 8 7 6 5 5 4 5 7 6 6 6 6 9 8 8 8 8 8 9 8 7 7 7
7 10 6 5 2 3 6 8 10 6 9 8 5 8 9 8 8 8 7 6 7 7 7 7 7 5 8 8 6 5 4 4 5 6 6 5 5 6 9 8 8 7 7 8 8 7 8 7 5
6 4 4 3 4 5 8 7 10 5 9 12 8 10 8 7 8 7 7 7 6 5 5 5 7 7 6 8 7 6 7 7 6 5 6 7 7 8 8 8 8 8 7 9 9 7 7 8 4
5 5 5 6 5 6 6 7 1 5 6 6 6 2 7 8 7 5 5 5 5 5 6 6 6 7 7 7 6 7 6 7 6 6 6 7 8 8 9 9 10 10 10 9 8 8 10 11 9
4 11 13 6 4 5 3 15 3 7 8 8 8 8 7 5 6 6 6 7 6 7 6 6 6 6 6 7 7 7 6 6 7 6 7 8 8 7 8 8 9 9 10 11 12 12 11 11 10
Wind_Direction
291 250 279 324 326 202 121 94 85 110 133 72 30 29 37 47 18 107 195 128 124 127 129 135 131 131 128 122 113 112 111 107 101 98 93 90 89 84 85 70 83 83 81 76 74 71 70 69 68
303 298 285 270 235 200 85 116 152 82 95 85 109 213 257 101 78 120 115 141 137 127 142 133 129 132 128 119 118 119 114 109 106 100 95 92 91 86 84 76 79 86 81 80 78 77 73 70 65
268 265 312 241 279 23 104 113 94 90 121 144 119 20 9 83 103 148 125 152 130 127 144 128 130 136 134 126 120 119 117 114 110 106 102 98 95 92 90 83 81 83 83 81 82 79 77 71 64
270 208 274 278 284 66 59 95 109 124 87 4 27 107 89 336 130 115 149 144 133 127 121 134 138 139 136 131 127 123 120 117 114 109 105 102 98 96 93 87 83 83 85 84 83 82 78 73 65
246 272 267 228 301 96 74 77 138 166 154 150 185 122 98 103 89 117 154 148 135 115 123 133 138 141 139 136 133 129 125 121 117 114 110 109 106 101 97 94 92 92 89 86 85 82 78 72 56
266 257 279 242 217 93 91 130 154 157 124 80 162 261 101 130 136 148 153 160 141 127 131 131 138 140 140 140 135 132 129 126 122 118 115 111 107 105 102 99 97 95 92 90 87 83 79 75 60
259 190 261 285 243 123 152 142 187 184 143 172 60 173 115 137 156 149 160 170 127 128 130 138 152 147 142 141 138 138 135 132 128 122 114 106 103 99 97 98 99 97 92 89 88 85 84 75 52
331 341 262 270 302 176 97 153 353 243 118 69 77 289 153 160 143 139 167 165 130 133 138 147 153 153 152 151 145 141 139 137 134 127 117 107 102 99 96 93 100 101 98 95 92 89 81 64 70
319 341 251 249 240 252 118 171 353 20 104 31 149 61 54 127 132 141 176 166 140 140 147 162 154 164 160 157 155 145 144 141 131 124 128 128 132 121 97 101 106 106 104 102 101 99 88 67 74
208 191 268 19 19 23 132 222 145 171 198 164 140 90 90 131 156 160 175 179 166 150 163 168 162 169 164 158 153 154 152 155 146 145 161 144 140 122 107 97 101 105 107 108 110 113 99 73 59
211 240 12 42 29 23 357 187 293 181 253 198 196 175 175 159 176 178 188 186 182 167 180 174 173 175 161 157 158 160 159 159 150 162 134 112 113 118 115 117 105 112 113 108 100 80 53 58 54
286 240 25 27 55 6 294 322 244 232 248 61 42 126 156 176 184 192 188 191 183 178 178 176 172 173 163 155 164 162 163 163 163 164 133 131 130 135 145 142 153 155 152 104 81 72 73 62 55
211 257 102 92 111 258 27 274 257 277 255 210 110 79 170 180 195 196 197 195 183 185 177 178 171 172 161 159 166 160 168 170 168 166 152 154 147 148 158 140 134 128 119 109 108 94 85 73 67
17 4 236 164 212 190 222 262 74 249 229 253 180 184 214 188 197 195 201 200 191 181 179 170 189 186 165 168 172 165 166 175 172 169 164 156 147 151 140 125 122 116 109 117 121 117 106 92 84
1 287 223 223 208 203 178 269 226 238 268 242 247 221 198 218 205 205 198 199 190 184 176 168 177 183 165 170 170 157 165 167 177 167 153 158 164 150 158 132 139 126 115 116 111 114 110 105 96
222 204 241 304 140 152 173 264 256 208 211 217 225 242 219 212 209 213 211 190 195 179 170 164 160 177 201 155 123 148 155 164 167 161 156 165 159 156 139 143 147 132 129 124 120 122 119 117 112
192 248 211 164 170 126 183 283 104 70 188 265 263 250 239 219 200 207 207 210 187 181 169 165 158 168 171 141 110 109 124 131 133 148 158 169 150 150 152 149 145 146 142 133 135 128 128 124 113
218 209 249 243 188 203 205 257 284 260 214 230 243 252 252 232 214 193 191 203 184 180 177 160 159 158 138 105 93 76 76 89 122 137 145 151 155 153 147 145 147 146 146 140 142 130 125 129 122
284 344 310 14 148 180 227 259 259 267 269 263 251 243 244 236 235 196 184 182 184 183 176 172 162 166 142 134 133 134 173 150 107 122 133 144 151 146 142 141 149 151 159 154 145 131 129 129 126
282 242 274 298 113 163 266 266 272 258 243 234 246 250 251 250 232 214 174 164 172 182 178 175 174 170 161 163 149 142 135 139 109 122 122 110 122 145 149 149 159 156 139 153 149 146 136 133 157
254 242 251 257 314 207 262 271 241 268 235 245 258 252 247 245 239 199 150 166 169 177 182 179 174 170 161 156 119 89 84 80 104 144 136 150 142 150 147 154 156 167 150 158 169 156 166 157 188
248 246 231 243 344 258 132 284 286 295 254 226 238 236 238 232 219 156 159 169 175 186 177 169 172 165 157 159 147 160 167 155 173 149 143 145 149 161 161 158 161 172 166 164 166 175 180 160 169
204 24 85 168 233 304 209 265 243 219 263 248 244 230 228 152 100 134 141 177 171 160 170 168 164 167 156 165 160 168 181 165 150 142 147 151 147 148 160 164 161 165 173 163 172 180 166 176 165
131 92 71 56 197 263 160 203 221 225 229 233 223 156 131 112 98 81 55 84 117 119 131 144 157 163 151 159 159 161 177 162 144 141 161 164 156 148 163 163 171 166 163 165 171 169 170 165 177
157 142 184 274 185 240 161 216 237 182 294 333 330 150 134 127 128 136 136 139 146 134 132 140 158 180 152 153 165 189 190 162 157 161 168 160 156 173 174 175 169 175 175 171 168 172 165 169 159
195 179 173 198 190 259 36 239 250 212 322 262 277 160 143 138 137 156 165 168 162 162 161 173 194 180 150 154 192 195 206 159 155 163 161 177 183 167 161 172 166 166 156 158 160 167 169 167 186
185 219 223 330 83 22 223 266 284 212 240 250 244 146 174 168 157 163 153 161 165 167 180 190 199 188 157 164 184 184 173 146 156 165 158 158 144 141 153 157 154 152 145 154 157 169 170 173 159
169 172 126 224 194 222 257 253 236 311 260 233 214 212 183 175 147 152 163 167 160 160 175 203 183 186 165 166 178 178 170 169 161 152 151 143 133 138 143 146 147 145 147 150 153 146 144 131 129
166 208 211 175 194 176 263 253 87 103 37 21 312 276 182 155 157 157 170 142 154 157 185 198 198 182 179 172 171 162 164 162 157 157 151 141 133 142 153 155 153 155 153 153 148 143 140 139 140
271 205 204 181 218 217 166 246 40 77 53 24 46 48 49 104 129 148 147 154 172 184 191 204 208 190 196 178 166 168 166 163 157 161 150 144 147 154 157 157 156 157 156 157 155 152 150 144 145